Location: Mountain View
(37.3861°N, 122.0839°W)
Time: 04:52:57
(UTC-08:00)

Tiangong 2 - Visible Passes

Search period start: 17 December 2018 00:00
Search period end: 27 December 2018 00:00
Orbit: 383 x 391 km, 42.8° (Epoch: 17 December)

Date Brightness Start Highest point End Pass type
(mag) Time Alt. Az. Time Alt. Az. Time Alt. Az.
17 Dec 2.9 18:29:21 10° SSW 18:31:19 21° SSE 18:31:19 21° SSE visible
18 Dec 3.5 17:32:02 10° SSE 17:33:15 12° SE 17:34:30 10° ESE visible
18 Dec 3.6 19:06:30 10° WSW 19:07:45 22° WSW 19:07:45 22° WSW visible
19 Dec 1.8 18:07:54 10° SW 18:10:55 41° SSE 18:11:52 31° ESE visible
20 Dec 2.0 18:45:43 10° WSW 18:48:11 46° WNW 18:48:11 46° WNW visible
21 Dec 1.0 17:46:51 10° WSW 17:50:01 80° SSE 17:52:11 19° ENE visible
21 Dec 4.4 19:24:07 10° WNW 19:24:27 12° WNW 19:24:27 12° WNW visible
22 Dec 1.8 18:25:04 10° W 18:28:05 41° NNW 18:28:24 39° N visible
23 Dec 1.3 17:26:03 10° W 17:29:11 60° NNW 17:32:19 10° ENE visible
23 Dec 3.6 19:03:29 10° WNW 19:04:36 18° NW 19:04:36 18° NW visible
24 Dec 2.2 18:04:26 10° WNW 18:07:20 32° N 18:08:32 24° NE visible
25 Dec 2.8 18:42:45 10° WNW 18:44:44 25° NNW 18:44:44 25° NNW visible
26 Dec 2.3 17:43:46 10° WNW 17:46:36 29° N 17:48:42 15° NE visible
26 Dec 4.3 19:20:44 10° WNW 19:20:58 12° WNW 19:20:58 12° WNW visible
